Volk, WI

9:43 PM CDT on April 29, 2017 (GMT -0500)
Volk

Weather History for KVOK - July, 2013

Change the Weather History Date:

Monday, July 15, 2013

  Actual Average Record
Temperature  
Mean Temperature 74 °F -  
Max Temperature 88 °F 78 °F 96 °F (2006)
Min Temperature 60 °F 63 °F 41 °F (2007)
Cooling Degree Days 10    
Growing Degree Days 24 (Base 50)    
Moisture  
Dew Point 65 °F    
Average Humidity 92    
Maximum Humidity 100    
Minimum Humidity 52    
Precipitation  
Precipitation 0.00 in - - ()
Sea Level Pressure  
Sea Level Pressure 30.25 in    
Wind  
Wind Speed 2 mph (ESE)    
Max Wind Speed 7 mph    
Max Gust Speed -    
Visibility 5 miles    
Events Fog    
Averages and records for this station are not official NWS values.
T = Trace of Precipitation, MM = Missing Value Source: NWS Daily Summary

Daily Weather History Graph

Daily Weather History Graph

Search for Another Location

Airport or City:

Trip Planner

Search our weather history database for the weather conditions in past years. The results will help you decide how hot, cold, wet, or windy it might be!

Date:

Astronomy

Jul. 15, 2013 Rise Set
Actual Time 5:32 AM CDT 8:41 PM CDT
Civil Twilight 4:57 AM CDT 9:15 PM CDT
Nautical Twilight 4:12 AM CDT 10:00 PM CDT
Astronomical Twilight 3:18 AM CDT 10:54 PM CDT
Moon 1:09 PM CDT (7/15) No Moon Set
Length of Visible Light 16h 18m
Length of Day
15h 08m
Waxing Crescent, 45% of the Moon is Illuminated
Jul 15
Waxing Crescent
Jul 15
First Quarter
Jul 22
Full
Jul 29
Last Quarter
Aug 6
New

Hourly Weather History & Observations

Time (CDT) Temp. Heat Index Dew Point Humidity Pressure Visibility Wind Dir Wind Speed Gust Speed Precip Events Conditions
12:03 AM 64.4 °F - 64.4 °F 100% 30.24 in 5.0 mi ESE 3.5 mph - N/A   Clear
12:13 AM 62.6 °F - 62.6 °F 100% 30.24 in 2.5 mi East 4.6 mph - N/A   Clear
12:23 AM 64.4 °F - 64.4 °F 100% 30.24 in 5.0 mi ESE 2.3 mph - N/A   Clear
12:28 AM 64.4 °F - 64.4 °F 100% 30.24 in 6.0 mi East 2.3 mph - N/A   Clear
12:38 AM 64.4 °F - 64.4 °F 100% 30.24 in 10.0 mi East 3.5 mph - N/A   Clear
12:48 AM 62.6 °F - 62.6 °F 100% 30.25 in 7.0 mi ESE 4.6 mph - N/A   Clear
12:58 AM 63.7 °F - 63.7 °F 100% 30.25 in 9.0 mi SE 3.5 mph - N/A   Clear
1:03 AM 64.4 °F - 64.4 °F 100% 30.24 in 10.0 mi SE 3.5 mph - N/A   Clear
1:13 AM 62.6 °F - 62.6 °F 100% 30.25 in 8.0 mi ESE 3.5 mph - N/A   Clear
1:43 AM 62.6 °F - 62.6 °F 100% 30.25 in 1.5 mi Calm Calm - N/A   Clear
1:48 AM 62.6 °F - 62.6 °F 100% 30.25 in 1.0 mi Calm Calm - N/A   Clear
1:53 AM 62.6 °F - 62.6 °F 100% 30.25 in 0.5 mi Calm Calm - N/A Fog Fog
1:58 AM 61.5 °F - 61.5 °F 100% 30.25 in 0.5 mi Calm Calm - N/A Fog Fog
2:48 AM 60.8 °F - 60.8 °F 100% 30.25 in 0.2 mi Calm Calm - N/A Fog Fog
2:58 AM 60.1 °F - 60.1 °F 100% 30.25 in 0.2 mi Calm Calm - N/A Fog Fog
3:13 AM 60.8 °F - 60.8 °F 100% 30.25 in 0.5 mi Calm Calm - N/A Fog Fog
3:23 AM 60.8 °F - 60.8 °F 100% 30.25 in 0.2 mi Calm Calm - N/A Fog Fog
3:28 AM 60.8 °F - 60.8 °F 100% 30.25 in 0.5 mi Calm Calm - N/A Fog Fog
3:33 AM 60.8 °F - 60.8 °F 100% 30.25 in 2.0 mi Calm Calm - N/A   Clear
3:38 AM 60.8 °F - 60.8 °F 100% 30.25 in 10.0 mi ESE 1.2 mph - N/A   Clear
3:58 AM 60.8 °F - 60.8 °F 100% 30.25 in 1.0 mi ESE 2.3 mph - N/A   Clear
4:03 AM 60.8 °F - 60.8 °F 100% 30.25 in 0.8 mi ESE 2.3 mph - N/A   Clear
4:08 AM 60.8 °F - 60.8 °F 100% 30.25 in 1.2 mi ESE 2.3 mph - N/A   Clear
4:13 AM 60.8 °F - 60.8 °F 100% 30.25 in 6.0 mi ESE 2.3 mph - N/A   Clear
4:28 AM 60.8 °F - 60.8 °F 100% 30.25 in 4.0 mi East 2.3 mph - N/A   Clear
4:38 AM 60.8 °F - 60.8 °F 100% 30.25 in 1.5 mi East 2.3 mph - N/A   Clear
4:48 AM 60.8 °F - 60.8 °F 100% 30.26 in 3.0 mi ESE 2.3 mph - N/A   Clear
4:58 AM 60.6 °F - 60.6 °F 100% 30.26 in 4.0 mi ESE 3.5 mph - N/A   Clear
5:03 AM 60.8 °F - 60.8 °F 100% 30.26 in 5.0 mi ESE 2.3 mph - N/A   Clear
5:08 AM 60.8 °F - 60.8 °F 100% 30.26 in 5.0 mi East 2.3 mph - N/A   Clear
5:18 AM 62.6 °F - 62.6 °F 100% 30.26 in 2.5 mi ESE 2.3 mph - N/A   Clear
5:23 AM 60.8 °F - 60.8 °F 100% 30.26 in 1.0 mi ESE 2.3 mph - N/A   Clear
5:28 AM 60.8 °F - 60.8 °F 100% 30.26 in 0.8 mi ESE 2.3 mph - N/A   Clear
5:33 AM 60.8 °F - 60.8 °F 100% 30.26 in 0.5 mi ESE 2.3 mph - N/A Fog Fog
5:38 AM 60.8 °F - 60.8 °F 100% 30.26 in 0.5 mi ESE 1.2 mph - N/A Fog Fog
5:43 AM 60.8 °F - 60.8 °F 100% 30.26 in 2.0 mi SE 2.3 mph - N/A   Clear
5:48 AM 60.8 °F - 60.8 °F 100% 30.26 in 5.0 mi SE 2.3 mph - N/A   Clear
5:58 AM 61.2 °F - 61.2 °F 100% 30.27 in 4.0 mi Calm Calm - N/A   Clear
6:08 AM 62.6 °F - 62.6 °F 100% 30.27 in 2.0 mi East 2.3 mph - N/A   Clear
6:18 AM 62.6 °F - 62.6 °F 100% 30.27 in 5.0 mi ESE 2.3 mph - N/A   Clear
6:58 AM 65.8 °F - 65.8 °F 100% 30.27 in 10.0 mi ESE 3.5 mph - N/A   Clear
7:58 AM 71.8 °F - 71.8 °F 100% 30.28 in 10.0 mi ESE 3.5 mph - N/A   Clear
8:58 AM 77.0 °F - 69.8 °F 78% 30.29 in 10.0 mi Variable 1.2 mph - N/A   Clear
9:58 AM 82.4 °F 87.2 °F 71.6 °F 70% 30.29 in 10.0 mi SSE 6.9 mph - N/A   Partly Cloudy
10:58 AM 84.2 °F 89.6 °F 71.6 °F 66% 30.29 in 10.0 mi Variable 5.8 mph - N/A   Scattered Clouds
11:58 AM 86.0 °F 90.4 °F 69.8 °F 58% 30.28 in 10.0 mi ESE 5.8 mph - N/A   Scattered Clouds
12:58 PM 84.2 °F 89.6 °F 71.6 °F 66% 30.28 in 10.0 mi SE 3.5 mph - N/A   Mostly Cloudy
1:58 PM 85.3 °F 90.4 °F 71.1 °F 62% 30.27 in 10.0 mi SSE 4.6 mph - N/A   Scattered Clouds
2:58 PM 86.0 °F 91.8 °F 71.6 °F 62% 30.26 in 10.0 mi South 5.8 mph - N/A   Mostly Cloudy
3:58 PM 89.6 °F 94.7 °F 69.8 °F 52% 30.24 in 10.0 mi Variable 2.3 mph - N/A   Mostly Cloudy
4:58 PM 87.8 °F 93.8 °F 71.6 °F 58% 30.23 in 10.0 mi Calm Calm - N/A   Mostly Cloudy
5:58 PM 87.8 °F 93.8 °F 71.6 °F 58% 30.22 in 10.0 mi SE 4.6 mph - N/A   Partly Cloudy
6:58 PM 86.0 °F 91.8 °F 71.6 °F 62% 30.21 in 10.0 mi SE 4.6 mph - N/A   Partly Cloudy
7:58 PM 84.2 °F 89.6 °F 71.6 °F 66% 30.22 in 10.0 mi SSE 3.5 mph - N/A   Scattered Clouds
8:58 PM 77.0 °F - 71.6 °F 83% 30.22 in 10.0 mi Calm Calm - N/A   Partly Cloudy
9:58 PM 74.8 °F - 72.3 °F 92% 30.22 in 10.0 mi Calm Calm - N/A   Clear
10:58 PM 71.8 °F - 71.6 °F 99% 30.24 in 10.0 mi ESE 2.3 mph - N/A   Scattered Clouds
11:58 PM 75.0 °F - 71.8 °F 90% 30.23 in 10.0 mi SSE 2.3 mph - N/A   Clear